Temp
9 10 10 10 10 10 11 11 12 12 12 13 13 13 12 11 12 14 15 15 16 16 16 16 17 17 17 18 19 19 20 20 20 19 19 21 21 21 21 20 20 21 21 21 21 21 20 20 20 19 20 20 20 20 21 21 22 22 22 21 20 20 21 22 23 23 23 24 25 25 24 25 26 25 25 25 24 22 20 20 20 20 20 19 19 19 19 19
11 11 12 12 12 13 14 14 14 14 14 14 14 13 13 13 14 15 16 16 16 16 16 17 17 18 18 19 19 20 20 20 19 19 21 22 21 21 21 21 21 21 21 21 21 21 21 20 19 19 21 21 20 20 21 21 22 22 21 21 20 20 22 23 24 24 24 25 25 25 24 24 25 24 25 25 25 23 21 20 19 19 19 19 19 19 19 19
13 13 13 14 14 15 16 16 15 15 14 14 14 14 14 14 15 16 16 17 17 17 17 17 18 18 19 19 19 19 19 19 20 21 22 22 21 21 21 21 21 21 21 21 21 20 21 20 19 20 22 22 20 21 22 21 22 22 21 21 21 22 22 22 24 25 25 25 25 25 24 25 24 24 25 25 25 25 24 21 20 20 19 19 19 19 19 19
13 14 14 14 15 15 16 16 15 15 15 14 14 14 15 15 16 16 17 17 17 17 17 17 18 18 19 19 19 19 18 20 21 22 22 22 22 21 21 21 21 21 21 21 21 20 20 19 18 20 21 22 20 21 22 22 22 21 21 23 22 21 22 23 24 25 24 24 25 25 25 25 24 24 24 25 25 26 25 22 21 20 19 19 19 19 19 18
14 14 15 15 15 15 15 15 15 15 15 14 14 14 15 16 16 17 17 17 17 18 18 18 18 18 19 19 19 19 19 20 22 22 22 22 22 21 21 21 21 21 21 21 20 20 20 19 18 20 21 22 21 21 22 22 22 22 21 22 22 21 23 24 24 24 23 23 24 25 25 25 24 24 24 25 26 25 23 21 20 20 19 20 20 19 19 18
15 15 15 15 15 15 15 15 15 15 15 14 14 14 15 16 17 17 17 18 18 18 18 18 18 19 19 19 19 19 20 21 22 22 22 22 22 22 22 22 22 22 21 21 20 20 20 19 20 21 22 21 21 22 22 22 22 22 22 22 22 23 24 25 24 23 23 24 25 25 25 24 24 25 23 23 23 21 20 20 20 20 20 20 20 20 20 19
15 15 16 16 16 16 16 16 16 15 15 15 15 15 16 17 17 18 18 18 18 18 18 18 19 19 19 19 19 19 20 22 22 22 22 22 22 22 22 22 22 22 22 21 20 20 20 21 21 22 22 22 21 22 22 22 22 22 23 22 23 23 24 25 24 24 24 24 24 24 24 24 25 25 23 21 20 19 19 19 19 18 18 19 19 20 19 18
15 15 15 16 16 16 16 16 16 16 16 15 15 15 16 17 18 18 18 18 18 18 18 18 19 19 19 19 19 20 21 22 23 23 23 22 22 22 22 22 22 22 21 21 20 20 20 22 22 21 22 22 21 22 21 21 21 21 22 23 23 22 23 24 24 23 23 23 23 23 23 23 23 23 21 20 19 19 19 19 18 18 18 18 19 20 19 17
15 15 15 16 16 16 16 16 16 16 16 16 15 16 16 17 18 18 18 18 18 18 18 19 19 19 19 18 18 21 22 23 23 23 23 23 22 22 22 22 22 22 21 21 20 20 21 22 22 22 23 22 21 22 21 22 22 22 22 23 23 23 23 23 23 24 23 23 23 22 22 21 21 21 21 20 19 19 18 18 18 18 19 18 18 18 17 17
15 15 16 16 16 17 17 17 17 17 17 17 16 16 17 18 18 18 18 18 18 18 19 19 19 19 19 18 18 21 23 23 23 23 23 23 22 22 22 22 22 22 21 21 20 20 22 23 22 22 22 22 22 22 22 22 22 22 22 23 23 23 22 22 24 24 23 22 22 21 20 20 21 21 21 20 19 18 18 18 17 17 17 16 16 16 15 15
15 15 16 16 16 17 17 17 17 18 18 17 17 17 17 18 18 19 18 18 18 19 19 19 19 19 19 18 20 22 23 23 23 23 23 23 23 23 22 22 22 22 21 21 21 22 23 22 21 21 22 22 22 22 22 22 22 22 22 23 23 22 22 22 23 24 23 22 21 21 20 20 20 20 19 18 18 18 18 18 17 17 17 16 17 16 16 15
15 15 16 16 17 17 18 18 18 18 18 18 18 18 18 19 19 19 19 19 19 19 19 19 19 18 18 18 21 22 23 23 23 23 23 23 23 23 23 23 22 22 22 21 22 23 23 22 22 23 23 22 22 22 23 22 22 22 22 23 23 22 23 22 22 23 23 22 20 22 21 19 18 17 17 18 18 18 18 17 17 17 17 17 17 17 16 16
15 15 16 16 17 17 18 18 19 19 19 18 18 18 19 19 19 19 19 19 19 19 19 19 19 18 18 21 22 23 23 23 24 23 23 23 23 23 23 23 23 23 22 22 22 23 23 23 23 23 22 23 23 22 22 22 21 22 22 22 23 22 22 21 20 22 22 20 20 22 20 17 16 16 17 18 18 17 17 17 17 17 17 17 16 16 16 15
15 16 16 17 17 18 18 19 19 19 19 19 19 19 19 20 20 20 20 19 19 19 19 19 19 18 19 22 23 23 23 23 24 24 24 23 23 23 23 23 24 24 23 23 23 23 23 23 23 23 22 22 22 22 22 21 21 22 21 21 21 21 21 20 19 20 21 19 19 21 18 16 16 17 17 17 17 17 17 16 16 16 16 16 16 16 15 15
16 16 16 17 17 18 19 19 19 19 20 20 20 20 20 20 20 20 20 20 20 19 19 19 19 19 20 23 23 23 23 24 24 24 24 23 23 23 23 24 24 24 24 23 23 23 23 24 23 22 22 22 22 22 22 22 21 20 21 21 19 19 21 20 18 19 21 19 19 20 17 15 17 17 17 17 17 17 16 16 16 15 15 15 15 15 15 15
16 16 17 17 18 18 19 19 20 20 20 20 20 20 20 20 20 20 20 20 20 19 19 19 19 19 21 23 23 24 23 23 24 24 24 24 23 23 23 24 24 24 24 23 23 23 23 23 22 20 22 22 21 22 22 21 21 20 20 20 19 20 20 20 19 18 20 20 19 19 17 16 17 17 17 17 16 16 16 16 15 15 15 15 15 15 15 15
16 16 17 17 18 18 19 20 19 20 20 20 20 20 20 20 20 20 20 20 20 19 19 19 18 19 21 23 23 23 22 23 24 24 24 24 24 24 23 23 23 22 23 23 23 23 22 22 20 19 20 20 19 21 22 20 21 20 20 19 18 19 19 19 19 17 19 19 17 17 16 16 16 16 16 16 16 16 16 15 15 15 15 15 15 15 15 14
17 17 17 17 18 18 19 19 19 20 20 20 20 20 20 20 20 20 19 19 19 19 19 19 19 19 22 23 22 22 22 22 23 24 24 24 23 23 23 23 21 21 22 22 23 22 22 21 20 21 21 20 20 22 21 20 20 20 20 20 18 18 18 18 18 18 18 18 16 16 16 16 16 16 16 16 15 15 15 15 15 15 15 15 15 14 14 14
17 17 17 18 18 18 19 19 19 20 20 20 19 20 20 20 20 19 19 19 20 21 21 20 20 20 21 21 21 22 22 22 23 24 24 24 23 23 23 22 21 21 22 22 22 21 21 21 21 22 21 21 21 22 21 21 21 20 19 19 18 18 17 17 17 18 17 17 16 16 15 15 16 16 16 16 15 15 15 15 15 15 15 14 14 14 14 14
17 17 17 18 18 18 19 19 19 19 19 20 20 20 19 19 20 20 19 20 20 19 20 20 20 20 21 21 21 22 23 23 23 23 24 23 23 24 22 21 21 21 21 21 22 20 20 22 21 21 21 21 21 20 21 20 19 20 19 18 18 17 17 17 17 18 18 17 16 15 15 16 16 16 16 16 15 15 15 15 15 14 14 14 14 15 15 15
17 17 18 18 18 18 19 19 19 19 19 19 19 18 17 17 19 19 18 19 18 16 18 19 18 20 21 20 21 21 22 23 23 23 24 23 23 23 22 21 21 21 19 19 20 20 20 21 20 20 20 19 19 20 20 20 19 20 20 19 18 17 17 18 18 18 19 17 16 16 16 15 15 16 16 15 15 15 15 15 15 15 14 14 14 15 14 14
17 18 18 18 19 18 19 19 19 19 19 19 19 17 16 16 17 18 17 19 19 17 17 18 18 20 21 20 21 21 21 23 23 23 23 23 23 23 22 21 21 19 19 20 20 21 21 21 20 20 18 18 18 18 20 20 21 21 19 19 19 18 18 18 18 18 18 17 16 16 15 15 15 15 15 15 15 15 14 15 15 15 15 15 15 15 15 15
18 18 18 18 19 19 19 19 19 19 19 18 18 16 16 17 17 18 17 18 20 19 19 20 20 21 22 22 22 22 22 22 22 23 23 23 23 21 21 21 20 19 19 21 21 21 20 20 19 18 18 20 19 18 19 20 20 20 20 20 18 18 18 18 17 18 17 17 16 15 15 15 15 15 15 15 15 14 14 14 14 14 15 15 14 14 15 15
17 18 18 19 19 19 19 19 19 19 18 17 17 17 17 17 17 18 18 17 19 20 20 20 21 21 22 22 22 22 22 21 21 22 22 23 22 21 21 21 20 20 19 20 21 20 20 20 18 18 19 21 21 20 21 21 20 19 20 20 19 18 18 18 17 17 17 16 16 16 15 15 15 15 15 15 15 14 14 14 14 14 14 14 14 14 14 14
17 18 18 19 19 20 19 19 19 18 18 18 17 17 17 17 17 18 18 17 18 20 20 20 21 21 21 22 22 22 21 22 22 22 22 22 22 21 21 20 20 20 19 19 21 20 20 19 18 19 20 20 21 21 20 20 20 20 20 20 20 19 18 17 17 17 16 16 16 16 16 15 15 15 14 15 15 14 14 14 14 14 14 14 15 14 14 14
18 18 18 19 19 20 20 20 19 18 18 18 18 18 17 18 18 18 19 19 19 20 20 21 21 21 22 21 21 20 21 22 22 21 22 22 22 22 21 19 19 20 19 19 20 19 20 19 19 20 21 20 21 20 19 19 21 20 19 19 19 18 17 17 17 17 16 16 16 16 16 15 14 15 15 15 14 14 14 14 14 14 14 14 14 14 14 14
18 18 18 19 19 19 20 19 18 18 18 18 18 18 18 18 18 18 19 19 19 19 19 21 21 22 22 20 20 20 21 21 22 21 22 22 22 21 21 20 20 19 18 19 20 19 20 20 19 20 21 21 20 20 19 19 21 20 19 18 19 18 18 18 18 18 16 16 16 16 16 15 14 15 15 15 14 14 14 14 14 14 14 14 14 14 14 14
18 18 18 18 18 19 19 18 18 18 18 18 18 18 18 18 18 18 19 18 18 19 19 20 21 22 21 20 20 21 21 21 22 22 21 22 22 21 21 20 20 18 17 19 20 19 19 20 20 20 21 20 20 20 19 19 20 19 17 18 18 18 18 18 18 18 16 16 17 16 16 16 14 14 15 14 14 14 14 14 14 14 14 14 14 14 14 14
18 18 18 19 19 18 18 18 18 18 18 18 18 18 18 18 18 18 19 18 18 19 19 20 22 21 20 20 21 20 21 21 21 21 21 21 21 21 21 19 19 18 17 19 20 19 18 19 19 20 20 20 20 19 18 19 20 18 16 17 17 16 17 17 17 18 16 17 18 17 16 17 15 14 14 14 14 15 15 15 15 15 14 14 14 14 14 13
18 19 18 19 19 19 19 19 19 19 19 18 18 18 18 19 18 19 18 17 18 18 19 20 20 19 19 21 21 20 21 21 20 20 21 21 20 20 19 18 19 20 19 19 19 18 18 18 18 19 19 19 19 18 17 18 18 17 18 19 18 17 17 17 17 17 17 17 17 16 16 17 16 14 13 14 15 16 16 15 14 15 14 14 14 14 14 14
19 19 19 19 19 19 19 19 19 19 19 19 18 18 19 19 18 18 18 17 17 18 19 19 18 18 18 19 20 20 20 21 20 20 21 20 20 20 19 19 20 20 19 19 19 18 19 19 19 19 18 18 19 19 17 17 17 18 19 19 19 18 18 18 17 17 17 17 16 15 15 17 17 15 14 14 16 16 16 15 15 15 15 14 14 14 14 14
19 19 19 20 20 19 19 20 20 19 19 19 18 18 19 19 18 17 17 17 18 18 18 18 17 18 17 17 18 19 19 20 19 19 19 18 19 19 18 18 19 19 18 18 18 18 19 19 18 18 18 18 20 20 19 18 18 18 19 19 19 17 17 17 17 16 17 16 15 15 15 16 16 16 15 15 17 16 15 15 16 15 15 14 14 14 14 13
19 20 20 20 20 20 20 20 19 19 19 18 18 18 19 19 18 16 16 17 17 17 17 17 17 17 17 18 18 18 18 19 19 19 18 17 18 17 16 16 16 18 18 16 16 18 19 18 18 19 19 18 19 20 20 19 19 19 19 19 19 17 16 16 15 15 15 16 15 14 15 16 16 17 17 16 17 16 15 15 15 15 15 14 14 14 14 13
20 20 20 20 20 20 20 20 20 19 19 18 19 19 19 18 17 16 16 17 17 16 16 16 17 17 17 18 18 17 19 19 18 19 18 18 19 18 18 17 16 17 17 15 16 17 18 18 18 19 19 18 19 19 19 19 19 18 17 18 19 18 17 17 16 16 16 15 15 15 16 16 16 16 16 16 16 15 15 14 13 14 14 14 14 14 13 13
20 20 20 21 21 20 20 20 20 19 18 19 19 19 18 17 16 16 16 17 16 17 17 15 17 18 18 18 17 17 18 19 18 18 18 18 18 18 18 18 17 17 17 17 15 15 16 17 18 18 17 17 18 18 18 19 19 17 15 18 19 18 18 16 14 15 15 15 15 15 15 15 16 15 14 15 15 15 15 14 13 14 13 13 14 13 14 14
20 20 20 21 20 20 21 20 20 19 18 19 20 18 17 17 16 16 16 17 16 17 17 16 17 18 18 17 17 17 18 18 18 18 18 17 17 17 17 17 17 17 17 17 16 15 16 17 18 18 17 17 17 18 18 18 19 17 17 18 17 16 17 16 14 13 13 15 15 14 15 15 15 16 14 14 15 15 15 14 14 14 13 13 14 14 14 14
20 20 20 20 20 20 20 20 19 18 18 20 20 17 16 17 16 16 16 16 16 16 17 17 17 16 17 17 17 17 17 17 17 18 17 16 16 17 17 17 17 17 17 17 16 16 16 18 18 17 19 18 16 17 18 17 18 19 19 18 16 15 17 17 16 14 13 15 15 14 15 15 16 16 15 15 15 15 15 14 14 13 13 14 14 14 14 14
18 18 19 19 20 20 20 20 19 18 19 19 18 16 16 17 16 16 16 16 16 16 17 17 16 15 16 16 17 17 17 18 18 17 17 17 17 17 17 17 17 16 15 16 17 15 15 18 18 16 18 18 16 18 19 17 16 17 18 17 16 17 18 17 16 16 15 15 15 14 14 14 15 16 15 15 15 16 15 14 14 14 14 14 15 15 15 14
17 18 19 19 19 20 19 19 18 18 19 19 17 16 17 17 17 16 16 16 16 16 17 16 16 15 15 16 17 16 16 17 17 17 17 17 17 17 17 17 18 16 15 16 17 15 14 17 18 17 16 17 17 18 18 18 17 17 17 17 16 17 17 16 16 16 16 15 14 14 14 14 15 16 16 15 15 16 16 14 14 15 15 15 15 15 15 14
15 18 19 18 19 19 19 19 18 19 20 18 16 17 17 17 17 17 16 16 16 16 16 16 15 16 16 16 16 16 16 16 16 16 17 16 16 17 17 17 18 17 16 16 16 15 14 15 17 17 17 16 17 17 17 17 17 17 18 18 17 16 15 15 15 14 15 15 14 14 15 16 16 15 16 17 15 15 16 16 16 16 15 15 15 15 15 14
13 18 19 18 19 19 18 19 18 17 17 16 15 17 17 17 18 17 16 15 16 16 16 16 16 16 16 16 16 16 16 16 16 16 16 16 17 17 16 16 17 17 17 17 16 15 15 15 16 17 17 17 18 16 15 16 16 16 17 17 17 16 15 16 15 13 14 15 14 14 14 17 16 14 15 16 15 15 16 16 17 17 15 15 15 15 15 14
15 19 18 18 19 19 19 19 15 14 16 17 16 16 17 17 17 17 16 16 16 16 16 16 16 16 16 16 16 16 16 17 16 16 16 16 16 17 16 16 16 16 17 17 15 14 14 15 16 16 16 16 16 14 13 14 14 15 15 15 15 16 16 17 16 15 14 13 13 13 14 16 15 13 13 14 14 15 14 14 17 17 15 14 15 15 14 13
17 18 18 18 18 18 19 18 16 15 17 16 16 16 16 17 17 16 16 16 16 16 16 16 16 16 16 16 16 16 16 17 16 16 17 16 16 17 16 15 16 16 17 16 15 14 14 15 16 16 16 16 16 15 13 13 15 15 15 14 15 15 16 16 15 15 15 14 13 14 14 16 16 12 12 14 14 15 14 13 16 17 14 14 15 14 14 13
13 14 16 18 19 19 19 18 17 17 16 16 16 16 16 16 16 16 17 17 16 16 17 16 16 16 16 15 16 16 16 16 16 16 16 16 16 16 15 15 15 16 17 16 16 16 15 15 15 15 15 15 16 16 16 15 16 16 16 14 14 14 15 15 14 14 15 14 14 15 15 16 16 13 13 15 15 16 15 14 14 15 15 14 14 14 13 13
12 14 15 17 18 18 17 17 17 17 16 16 17 16 16 16 16 15 16 16 16 15 16 16 15 16 15 15 16 16 15 16 16 16 15 16 16 16 15 15 16 16 16 15 15 16 15 14 15 15 15 15 15 15 15 16 16 15 15 15 14 14 15 15 15 15 15 14 13 15 16 16 16 15 15 15 16 16 16 13 12 13 14 14 14 14 13 13
15 17 17 17 18 16 15 14 15 17 17 16 16 15 15 16 16 15 15 16 15 15 16 16 15 16 15 15 16 16 15 15 15 15 16 16 17 16 16 16 16 16 16 15 15 15 14 13 14 15 16 15 16 15 14 14 15 15 15 16 15 14 14 15 15 15 15 14 13 15 16 16 16 16 16 15 15 16 15 14 13 13 13 13 13 13 13 13
15 16 16 17 18 17 16 15 15 17 16 16 17 16 15 16 16 15 15 16 15 15 15 15 15 16 16 15 16 15 15 15 15 15 15 15 16 16 15 16 16 16 16 15 14 15 15 14 14 14 15 15 15 15 13 13 15 15 15 16 16 14 14 15 15 15 15 14 14 15 15 15 16 17 16 16 15 15 15 15 14 14 13 13 13 13 13 13
14 15 14 14 16 17 17 16 16 16 16 16 16 15 16 16 15 16 16 15 15 15 16 15 15 16 16 15 16 15 15 15 15 15 15 15 15 16 16 16 16 16 16 15 14 15 16 15 14 13 15 15 14 14 13 13 14 14 14 15 15 14 14 15 15 15 14 15 16 15 14 15 16 17 17 17 16 16 16 14 14 13 12 13 12 13 13 13
13 14 13 12 15 16 15 14 15 15 16 16 15 16 16 16 16 16 15 15 16 15 15 16 16 16 15 15 15 15 15 15 15 15 15 15 14 15 16 16 16 15 16 16 15 14 15 15 13 13 15 16 15 13 12 13 14 14 14 15 15 14 13 14 15 14 14 15 16 14 13 15 16 16 17 17 15 14 14 13 12 12 13 13 13 13 13 13
12 13 13 13 15 15 14 14 15 16 16 15 15 16 15 16 16 16 15 16 16 15 14 16 17 16 14 14 15 16 16 16 16 15 15 15 14 15 15 16 16 15 16 16 14 13 15 15 13 12 14 15 14 13 13 13 13 14 15 15 14 13 12 13 13 13 13 14 14 13 13 14 14 14 15 14 12 12 13 13 13 13 13 13 13 13 13 13
10 10 11 13 15 14 14 14 14 15 16 15 15 16 15 16 16 16 16 16 16 16 16 16 17 15 13 13 15 16 16 16 16 16 16 16 16 16 16 15 15 16 16 16 15 15 15 14 12 13 14 15 14 13 13 13 13 13 15 15 14 14 14 14 13 13 14 14 14 13 13 15 15 13 13 13 12 14 15 14 14 13 12 13 14 13 13 13
9 10 9 12 15 14 13 14 14 14 16 15 15 15 16 16 15 16 16 15 15 15 15 15 16 15 14 15 15 16 16 16 17 17 16 16 16 16 16 15 15 16 16 16 14 14 14 15 14 14 14 14 13 12 13 14 14 15 15 15 16 15 15 14 14 13 14 15 15 14 15 16 15 14 14 14 13 14 15 14 13 13 12 13 13 13 13 12
Height
813 811 810 809 808 807 806 804 803 802 801 800 799 797 796 795 794 793 793 792 792 791 791 790 790 789 789 788 788 788 788 787 787 787 786 785 784 785 785 786 786 786 786 786 786 787 787 787 787 787 788 789 791 792 791 792 793 796 805 813 818 823 818 811 811 808 806 804 799 797 797 797 795 791 785 784 786 790 793 792 791 788 788 789 790 791 791 793
813 812 810 809 808 807 806 804 803 802 801 800 798 797 796 795 794 793 793 792 792 792 791 791 790 790 789 789 788 788 787 786 786 786 785 784 784 784 785 785 786 786 786 786 786 786 787 788 787 788 788 791 793 793 793 793 793 799 810 814 816 817 810 804 803 801 801 801 798 796 797 796 795 794 789 789 792 792 795 798 795 794 794 794 793 793 794 795
814 812 811 809 808 807 805 804 803 802 801 800 798 797 796 794 794 794 793 793 792 792 791 791 791 790 790 789 789 788 787 786 786 785 784 784 784 784 784 785 785 786 786 786 786 786 787 787 787 788 789 792 794 794 795 794 795 800 806 811 812 808 805 802 800 798 798 797 797 796 795 795 795 793 791 793 796 792 796 801 800 800 800 798 797 796 797 798
814 813 811 810 808 807 805 804 803 802 801 799 798 797 796 795 794 794 793 793 793 792 792 791 791 790 790 789 789 789 787 788 787 785 784 784 784 784 784 785 786 786 786 786 786 786 786 787 787 788 790 794 796 795 795 795 796 799 802 805 806 805 804 800 797 796 797 797 797 796 794 794 793 792 793 795 797 796 796 798 799 801 800 799 799 798 798 799
814 813 811 810 808 807 805 804 803 802 800 799 798 797 796 795 794 794 794 793 793 793 792 792 791 791 791 789 790 788 788 794 790 783 784 784 784 785 785 785 786 786 786 786 786 786 786 786 787 789 791 794 796 796 796 794 795 799 801 801 801 804 803 796 796 797 797 798 796 796 795 794 793 793 795 796 798 800 798 797 797 798 798 798 798 799 799 800
815 813 812 810 808 807 805 804 803 801 800 799 798 797 796 795 795 794 794 794 793 793 792 792 792 791 791 790 790 788 790 796 788 783 785 784 785 785 785 785 785 786 785 786 786 786 786 787 788 790 792 795 798 796 796 794 794 798 801 800 798 799 798 795 795 796 796 797 797 797 795 794 796 795 797 799 802 802 799 797 796 797 798 798 798 799 800 802
816 814 812 810 809 807 806 804 803 801 800 799 798 797 796 795 795 794 794 794 794 793 793 792 792 791 791 790 790 789 791 791 785 784 786 784 786 785 785 786 785 786 785 785 785 786 787 788 789 791 792 795 798 795 794 794 794 798 800 798 797 795 795 793 793 795 795 796 797 796 796 797 798 797 799 805 806 804 800 798 797 799 800 800 801 802 804 808
816 814 812 810 809 807 806 804 803 802 800 799 798 797 796 795 795 795 794 794 794 794 793 793 792 791 791 790 790 791 791 788 785 786 786 785 786 786 786 786 786 786 785 785 785 786 787 788 789 791 793 794 795 794 794 795 796 799 798 796 795 795 795 793 794 796 796 797 797 798 800 802 802 800 803 809 808 805 803 802 802 802 803 803 805 806 808 811
816 814 812 810 809 807 806 804 803 801 800 799 798 797 796 795 795 795 795 795 794 794 793 793 793 791 791 790 791 794 791 787 786 786 786 786 786 786 787 786 786 786 785 786 785 785 787 788 789 788 791 793 793 793 793 796 798 797 796 795 794 795 794 793 795 795 796 798 798 803 807 806 804 803 808 811 810 809 805 805 806 805 807 808 809 810 811 813
816 814 812 810 808 807 805 804 802 801 800 799 798 797 796 795 795 795 795 795 794 794 793 793 793 792 791 790 792 795 790 786 787 787 786 786 786 787 786 786 786 786 786 786 785 785 785 786 786 785 788 791 792 792 792 794 794 793 794 794 793 795 795 795 795 793 797 801 801 807 814 811 804 806 815 816 812 810 807 808 810 809 812 813 812 813 813 815
817 814 812 810 808 807 805 804 802 800 800 798 797 796 796 795 795 795 795 795 795 794 794 793 792 792 791 791 793 794 788 786 787 786 787 786 786 786 786 787 786 786 786 786 786 785 784 785 784 785 788 790 790 792 791 790 791 792 793 794 796 796 797 798 797 795 798 804 805 805 811 814 810 815 824 822 817 812 809 813 813 813 816 815 815 815 815 817
817 815 812 810 808 807 805 803 802 800 799 798 797 796 795 795 794 795 795 795 794 794 794 793 792 791 791 792 793 790 786 786 786 786 786 786 786 786 786 786 786 786 786 786 786 785 785 784 783 786 789 789 791 793 790 788 790 792 793 796 799 798 799 800 800 799 798 804 805 801 812 826 828 831 830 824 821 816 813 817 818 818 819 818 818 818 819 822
817 815 812 810 808 806 805 803 801 800 799 797 796 795 795 794 794 795 795 795 794 794 794 793 792 791 791 792 790 787 786 786 786 786 786 785 786 785 785 786 785 785 786 785 785 784 785 784 784 786 787 788 792 791 789 789 791 793 795 798 801 803 806 806 804 801 799 806 803 802 828 845 841 837 830 826 824 819 819 823 824 823 823 822 822 823 824 825
817 815 812 810 808 806 804 803 801 800 798 797 795 794 794 794 795 795 795 795 794 794 794 793 792 791 792 791 787 786 786 786 786 785 785 785 785 785 785 784 784 784 784 784 784 784 784 783 784 785 786 788 790 789 790 794 795 797 799 804 810 812 813 810 809 805 804 812 803 804 840 853 843 839 831 829 828 822 825 829 828 828 827 827 827 827 828 828
817 815 812 810 808 806 804 803 801 800 798 796 795 794 794 794 795 794 795 795 794 795 794 793 792 791 793 790 786 787 786 785 786 785 785 785 785 784 784 783 784 783 783 784 783 784 783 783 784 788 789 787 788 791 796 799 800 804 806 811 819 817 813 811 812 810 807 814 806 809 845 854 842 841 834 832 832 825 828 833 832 833 832 831 830 830 830 831
817 815 812 810 808 806 804 803 801 800 798 796 795 795 794 795 795 795 795 795 794 795 793 793 792 792 795 792 787 786 787 786 786 785 785 785 785 785 784 783 783 783 783 783 783 783 783 784 787 792 791 789 794 796 799 804 806 809 811 816 822 817 816 817 817 815 807 810 813 815 840 852 843 841 837 835 834 828 831 836 836 835 835 834 833 832 832 832
816 814 812 810 807 806 804 803 802 800 798 797 795 795 795 795 795 795 795 795 795 794 793 794 792 793 794 790 788 789 788 787 786 786 785 784 785 784 784 784 783 783 783 782 783 783 784 786 791 794 794 798 803 798 803 816 814 812 815 818 824 821 819 821 821 821 810 812 826 827 838 849 846 843 840 838 837 832 834 839 838 838 838 836 836 835 834 834
816 814 812 809 807 806 804 803 802 800 799 796 795 795 795 796 796 796 796 795 795 794 794 794 792 799 800 791 790 792 789 787 786 785 785 785 785 784 784 784 783 784 784 785 785 785 787 791 793 795 798 801 802 798 808 821 814 813 816 817 824 825 824 826 827 827 818 822 835 837 842 850 847 845 843 842 840 837 838 841 840 840 840 839 838 838 837 837
816 814 812 809 808 806 805 804 802 801 799 796 796 796 795 796 796 796 795 795 795 797 799 798 796 805 806 795 790 790 787 787 786 785 785 785 784 784 784 784 785 785 788 792 791 790 791 794 796 800 804 804 803 802 806 810 809 812 817 820 825 828 831 832 831 829 824 832 844 843 848 852 849 849 846 845 844 841 841 842 842 842 842 842 841 840 839 838
816 814 811 809 808 806 805 804 803 802 799 797 796 796 798 801 800 800 798 796 797 799 800 799 799 801 800 794 790 789 788 787 786 786 785 785 784 784 784 785 787 788 793 798 796 795 795 799 805 807 807 805 806 806 805 808 812 813 816 823 827 831 836 835 833 830 821 833 852 849 849 853 851 851 848 847 847 845 844 843 844 844 844 844 843 842 841 840
816 814 812 810 808 807 806 805 804 803 801 799 797 798 804 808 807 807 804 800 798 798 799 798 798 798 795 793 791 790 790 789 787 786 785 785 784 785 789 789 792 796 801 802 799 797 798 806 811 809 808 808 808 807 806 809 812 812 816 823 828 832 836 834 832 831 821 832 854 852 850 856 854 853 852 850 849 849 848 847 846 846 845 845 844 844 843 842
816 814 812 810 808 807 806 805 805 804 803 801 799 802 807 808 808 808 808 806 800 797 798 797 797 797 793 792 791 791 793 793 790 788 786 786 785 789 793 793 799 804 803 801 801 802 805 810 810 807 809 811 812 811 808 809 809 812 818 823 830 832 834 836 833 832 828 835 853 855 854 859 857 855 855 853 853 852 851 848 847 846 845 845 845 844 843 842
816 814 812 810 808 808 807 806 806 805 804 803 803 806 807 807 807 806 807 810 805 798 797 797 797 797 794 793 792 791 794 796 795 792 787 787 789 792 795 797 802 805 804 802 803 809 814 812 810 810 809 807 811 814 811 811 813 815 817 821 831 832 831 837 839 837 835 838 850 855 857 861 860 858 857 855 855 854 852 850 848 847 846 846 846 845 844 843
816 813 812 810 809 808 807 806 806 806 805 805 806 807 807 807 806 806 807 812 811 801 798 798 797 797 797 794 792 793 795 796 796 793 788 789 792 794 796 800 803 806 810 807 804 811 815 811 810 811 808 805 808 812 810 812 818 820 817 819 827 830 829 836 839 839 841 845 848 850 860 866 863 863 861 856 855 854 853 851 849 849 848 848 847 845 845 844
815 814 812 810 809 807 807 806 806 807 806 806 807 807 807 806 805 806 807 814 816 806 799 799 798 798 796 795 794 794 795 795 794 792 789 790 793 795 799 801 803 809 813 810 807 812 813 810 810 808 807 808 807 811 814 814 818 821 818 817 820 824 829 836 838 841 852 859 850 847 862 872 866 865 864 859 858 857 855 854 853 851 850 849 847 846 845 844
816 814 812 810 809 807 806 806 806 807 806 807 807 806 807 805 805 805 807 817 821 812 805 802 801 800 796 796 795 794 800 799 792 791 790 790 791 793 800 804 805 809 812 810 811 814 812 810 811 808 807 810 810 814 818 816 818 822 821 819 821 824 831 837 837 842 854 859 851 846 858 870 870 865 862 861 861 860 857 857 856 853 852 851 849 848 847 845
816 814 812 810 808 807 806 806 807 807 807 808 807 806 806 805 805 804 810 828 830 817 811 806 803 802 798 798 796 797 808 804 793 792 791 791 792 793 801 807 807 810 811 811 816 817 812 809 811 810 808 812 815 816 818 817 818 822 821 820 823 825 829 833 834 838 848 850 850 850 851 864 872 865 859 862 863 862 860 858 857 855 854 853 851 850 848 846
815 813 811 810 809 808 807 807 808 807 808 808 806 806 805 804 806 804 817 839 834 816 814 809 801 799 798 797 797 799 804 802 800 799 792 792 794 795 803 808 809 813 813 813 819 821 814 812 814 811 811 816 817 816 817 817 818 822 824 823 825 826 828 832 832 836 845 848 849 851 849 857 869 864 860 863 864 862 859 857 856 854 853 853 851 850 848 847
815 813 811 810 809 808 808 808 807 807 807 807 806 806 804 804 805 808 824 839 828 814 815 809 801 802 802 799 799 801 800 800 804 801 794 794 795 796 804 809 810 814 813 812 816 818 815 814 814 813 815 818 815 815 817 816 817 822 825 826 828 832 834 836 837 837 845 848 847 849 848 852 865 867 863 866 865 860 855 854 854 852 852 851 851 849 848 848
814 812 810 809 808 808 807 807 806 807 807 806 806 805 803 805 809 821 836 837 826 819 814 809 808 810 809 805 804 804 802 802 803 800 798 800 798 799 805 807 807 810 813 813 815 818 816 813 813 814 816 817 815 817 819 817 818 821 822 823 827 832 834 838 841 840 846 851 849 852 851 847 858 866 864 862 857 851 850 853 853 851 851 850 850 849 848 847
813 812 810 808 807 807 807 807 806 806 806 806 806 803 804 811 819 833 840 832 826 822 815 814 816 813 814 816 813 809 806 805 804 803 804 806 805 805 808 809 809 813 818 818 818 819 816 813 815 815 815 815 814 816 820 820 820 820 821 824 829 835 837 839 843 843 849 854 851 854 853 847 852 858 857 853 846 844 847 848 849 850 849 849 849 849 848 847
812 811 809 807 807 807 806 806 806 806 806 805 805 804 809 820 829 837 836 829 828 826 820 822 820 816 819 822 819 815 812 810 808 809 813 816 816 816 818 819 819 822 829 831 827 823 820 818 819 816 814 815 814 816 820 820 821 822 824 827 835 845 849 848 851 853 855 855 853 854 852 849 851 848 846 846 842 842 845 843 844 846 846 847 848 847 847 847
811 809 808 807 807 806 806 806 805 806 805 805 806 806 815 828 835 837 836 831 830 826 823 824 822 821 823 820 819 819 816 815 812 813 817 819 821 823 825 826 824 823 831 839 836 828 825 824 820 817 815 815 816 820 822 822 822 824 826 828 835 849 857 859 863 864 860 855 854 856 853 852 852 843 839 840 838 839 842 843 843 843 844 845 846 846 846 847
810 808 807 806 806 806 805 805 805 805 805 804 807 811 822 834 837 836 834 831 829 826 825 826 823 822 822 821 822 821 817 818 816 815 818 818 820 823 823 825 825 823 828 838 840 836 836 833 825 821 821 818 817 820 822 823 824 827 829 829 831 839 847 853 856 855 856 858 857 855 852 851 849 843 839 838 838 840 842 844 845 845 845 844 845 846 846 846
809 808 807 806 806 806 805 805 804 805 805 804 810 819 828 836 838 836 833 829 828 825 825 828 824 820 823 824 824 822 819 820 819 818 820 822 824 826 825 824 825 826 828 835 841 842 844 838 826 822 823 821 819 819 819 820 825 832 833 829 829 831 835 850 860 857 857 860 857 854 853 850 846 843 843 841 840 842 843 844 846 845 845 845 845 846 845 845
808 806 806 806 806 806 805 805 804 804 805 805 814 826 831 832 834 834 830 826 827 826 825 826 825 824 827 826 825 824 820 820 821 821 824 829 829 828 828 825 824 826 826 830 838 841 842 837 825 822 822 820 821 820 818 820 825 831 832 830 833 834 833 846 863 867 864 858 855 857 853 849 846 843 843 843 841 842 844 844 845 845 845 846 845 844 843 843
807 806 806 806 806 806 805 805 805 804 804 807 818 829 831 829 827 828 827 825 827 828 827 828 829 830 832 831 828 826 822 822 824 824 827 832 830 827 827 825 823 824 824 827 833 836 839 834 827 825 822 819 821 820 819 821 822 825 828 829 834 837 835 840 850 861 866 860 856 858 855 852 850 846 844 844 843 842 843 844 845 846 845 844 843 842 842 842
807 806 806 806 806 806 806 805 805 804 805 812 824 830 829 827 825 825 824 825 827 828 828 830 831 833 835 834 830 828 825 824 826 827 829 832 830 826 826 825 822 825 826 824 827 834 839 834 829 828 826 822 820 819 821 823 822 823 826 828 832 835 836 841 846 853 861 862 858 857 860 856 848 844 843 843 842 840 841 844 845 843 843 842 840 840 840 841
808 807 807 807 807 806 806 806 805 805 808 818 829 830 827 825 824 823 823 825 826 827 829 831 832 833 835 834 831 829 828 827 829 830 830 831 831 826 825 825 823 824 826 823 825 835 839 837 832 828 827 826 823 823 828 828 825 824 825 829 833 836 839 843 846 849 851 859 862 858 858 852 842 838 837 837 839 836 837 842 841 839 839 839 839 838 839 840
809 809 809 808 806 807 807 805 806 808 813 824 830 828 825 824 822 822 823 824 825 826 828 831 832 832 832 833 832 831 829 829 831 832 831 831 831 826 824 824 823 823 824 823 827 834 838 839 837 829 826 829 828 829 833 833 831 830 828 831 834 839 845 845 848 853 850 853 862 862 854 842 834 835 831 829 834 834 833 835 835 836 837 837 838 837 838 839
810 812 811 807 807 808 806 807 813 819 822 827 830 826 825 823 821 822 824 824 824 825 826 828 830 830 829 831 832 831 829 829 830 832 832 830 829 828 826 824 823 823 822 823 828 832 835 838 838 833 831 831 831 832 834 833 835 835 832 832 833 837 842 843 850 858 853 851 858 862 854 838 830 834 830 827 831 831 832 832 829 832 835 836 837 837 838 839
812 814 811 807 807 807 807 813 823 828 825 825 826 825 823 822 822 823 823 824 825 824 825 826 828 830 829 829 830 830 829 828 829 831 830 830 829 827 825 824 824 823 823 827 832 834 835 837 838 837 836 834 832 835 837 836 835 837 836 837 837 837 837 839 846 850 852 857 861 862 857 840 831 836 834 831 832 831 833 834 828 830 834 835 836 836 838 838
814 814 809 807 807 807 810 819 826 826 824 824 825 824 824 823 824 825 824 824 825 824 825 826 828 829 828 828 829 829 829 828 829 829 828 830 829 825 825 825 824 823 825 829 833 833 835 838 839 839 838 835 831 832 836 836 834 835 836 839 839 837 836 838 843 844 847 855 856 857 856 839 830 837 836 832 833 831 833 834 830 830 833 835 835 835 837 837
819 817 811 808 807 807 812 820 823 824 825 825 824 825 825 825 825 825 825 825 825 826 826 827 829 828 828 829 828 828 830 830 829 829 829 830 828 825 827 827 824 824 824 826 829 829 833 840 842 843 844 842 838 836 836 834 833 833 835 840 840 839 839 841 845 846 846 850 850 850 849 837 830 836 834 830 830 828 829 833 833 832 833 833 834 835 836 836
821 818 814 810 807 809 815 819 820 823 826 827 826 827 827 825 826 826 826 825 826 827 827 828 828 828 829 830 829 829 831 830 830 830 830 830 826 824 826 826 824 824 824 826 827 826 833 841 841 842 846 848 847 845 842 837 836 836 837 839 839 839 839 838 842 845 845 851 853 847 841 834 830 832 831 829 829 827 828 833 835 834 833 833 834 835 835 835
819 816 816 813 810 812 818 822 820 820 824 827 828 830 829 827 827 827 826 825 826 827 828 828 828 828 830 831 830 830 831 831 832 831 830 829 826 824 825 824 824 825 824 826 827 829 837 843 841 839 840 842 840 840 842 841 838 837 836 835 836 839 841 839 843 844 842 849 850 840 835 834 829 828 829 828 829 828 829 831 833 833 833 833 834 835 834 835
820 819 820 818 816 816 818 821 821 820 823 825 826 828 829 828 828 828 826 826 827 827 827 829 829 829 831 832 832 833 833 833 832 831 832 831 828 827 826 824 825 825 824 827 829 831 835 839 842 840 837 838 838 837 841 843 838 836 836 834 834 839 840 839 840 840 841 846 843 835 836 837 829 825 825 826 828 829 829 829 829 831 832 833 834 834 834 835
821 822 823 822 821 821 820 821 822 822 823 824 825 827 828 829 830 829 827 827 828 828 828 830 829 829 830 831 831 833 834 834 833 833 833 833 830 829 826 824 826 825 825 829 830 831 832 835 841 842 836 835 838 840 843 842 838 838 837 834 833 838 840 837 835 836 838 838 833 831 836 834 825 821 821 821 822 823 824 827 829 830 832 833 833 833 833 834
823 823 824 823 823 823 824 825 825 823 824 825 826 827 827 828 829 828 828 828 828 828 829 830 828 827 830 831 830 832 835 834 835 835 833 833 834 832 829 827 827 826 827 828 831 834 834 835 841 844 837 833 836 841 843 841 837 837 835 832 833 836 838 834 833 835 836 832 829 832 837 831 822 819 818 818 822 823 825 828 830 830 831 831 832 832 832 834
825 824 824 823 823 824 825 825 824 823 824 827 826 825 826 826 826 826 827 827 827 829 830 829 826 827 832 833 830 830 830 829 830 831 831 833 834 833 831 829 828 828 827 829 833 836 834 838 845 845 839 835 836 841 842 841 840 837 830 830 833 837 839 837 836 837 837 834 832 835 839 831 821 820 820 822 826 826 826 827 827 828 829 829 830 831 832 833
827 827 826 824 823 825 825 825 826 825 825 827 826 824 825 824 823 823 824 825 825 826 827 825 825 828 833 834 831 827 826 826 825 825 825 827 829 828 828 828 828 827 827 829 833 833 834 841 846 844 841 839 838 841 841 839 841 837 829 827 829 831 831 830 832 832 830 829 830 836 836 825 817 820 822 823 825 823 822 824 825 828 829 828 828 830 831 832
827 827 827 825 824 826 827 826 828 828 825 826 826 824 823 822 822 823 824 825 824 824 825 825 825 827 830 830 828 823 822 823 822 821 822 822 823 823 824 826 826 826 827 830 834 835 836 837 840 842 843 840 841 845 842 838 837 832 823 819 819 820 823 824 826 827 824 822 825 827 823 815 814 819 820 821 823 821 820 822 824 826 828 828 828 829 830 831
Wind_Speed
19 18 18 17 16 16 15 14 14 15 15 15 15 15 14 13 12 11 10 9 8 7 6 6 5 6 7 7 8 7 8 7 6 7 5 4 4 4 4 4 3 2 3 4 5 5 3 3 6 4 5 2 2 1 1 1 2 4 3 3 2 3 3 5 6 5 4 2 5 4 3 4 4 7 4 3 7 7 7 8 6 9 11 9 13 19 22 23
19 19 18 18 17 16 15 14 14 15 15 15 15 15 13 12 11 10 9 8 8 7 6 5 5 6 6 6 7 7 9 9 8 7 5 4 5 3 3 2 2 1 2 3 5 6 4 3 4 3 4 2 2 1 1 0 3 3 3 3 3 5 4 5 6 5 3 3 4 5 1 3 1 4 4 5 6 6 8 7 6 9 9 9 12 17 19 20
20 19 19 19 18 17 16 14 14 14 14 14 14 14 12 10 10 8 7 7 8 7 6 5 5 4 5 6 7 8 9 7 5 4 2 3 4 1 0 1 1 1 1 2 4 4 3 0 1 3 4 2 1 1 2 1 1 2 3 2 5 6 4 5 5 6 5 4 4 4 3 2 1 2 2 3 4 8 4 3 3 6 6 6 7 12 17 17
21 21 20 20 20 19 17 16 14 14 14 13 13 13 11 9 8 6 6 6 7 7 6 5 4 4 5 6 7 8 8 5 2 2 3 4 3 2 2 2 3 1 0 2 3 3 2 2 3 4 4 2 3 2 2 2 2 2 3 4 5 4 3 6 7 7 5 4 6 3 2 4 1 1 3 4 4 6 3 1 3 5 7 7 6 8 14 16
23 22 21 21 20 19 18 17 15 14 14 13 12 12 10 8 6 5 5 5 6 7 6 6 5 6 6 6 7 8 6 5 2 4 5 3 2 3 3 4 3 1 2 4 3 3 3 4 5 5 4 2 2 2 1 4 3 2 3 6 5 4 3 6 5 3 3 3 3 2 2 1 1 2 2 6 6 1 4 1 5 6 6 7 7 8 10 12
25 23 22 21 20 20 19 17 16 15 14 13 12 11 9 7 5 4 4 5 6 6 7 7 6 7 6 5 5 5 3 2 5 5 5 3 4 3 4 3 2 2 4 5 5 3 3 4 5 3 3 2 2 2 2 3 3 2 2 3 5 6 4 3 3 4 5 5 2 2 0 1 4 2 1 6 3 4 4 1 7 6 4 6 7 8 7 8
26 25 23 22 21 20 19 18 16 15 14 13 12 11 9 7 4 3 3 4 5 6 7 7 7 7 6 4 4 4 4 1 5 6 4 4 5 4 3 2 1 3 6 6 5 3 3 5 4 3 4 3 3 2 3 2 2 3 2 3 4 6 5 4 4 5 6 5 3 2 3 5 5 1 3 7 5 6 4 4 8 8 9 8 7 6 6 9
27 26 25 23 21 20 20 18 17 16 15 13 12 10 8 6 4 2 3 3 5 6 7 7 8 7 6 4 2 4 3 2 5 5 3 5 4 2 2 2 2 4 6 6 4 0 2 4 3 3 3 2 4 2 2 2 3 3 4 4 3 4 4 4 4 3 5 3 2 6 8 6 5 3 6 7 7 7 6 9 9 10 12 10 9 8 8 10
27 27 26 24 22 21 20 19 18 16 15 13 12 10 7 5 3 2 2 3 5 6 7 8 8 8 6 3 3 4 2 3 3 2 2 3 2 1 1 3 3 5 5 5 2 1 1 2 2 3 3 2 3 1 1 3 1 4 4 2 3 1 1 3 4 1 2 1 6 10 10 8 8 4 6 8 8 7 9 12 10 11 12 9 9 8 8 9
27 27 27 25 22 21 21 20 19 17 16 13 12 10 7 3 2 2 2 3 4 6 7 8 8 8 6 3 5 4 2 4 3 2 2 2 3 3 3 3 5 7 5 4 1 3 1 2 3 2 4 2 2 1 1 3 1 5 4 2 3 3 3 4 1 2 2 5 8 12 9 9 9 5 3 8 9 6 12 13 11 12 11 9 9 8 11 12
27 28 27 26 23 21 21 21 20 18 16 14 11 9 6 2 1 1 2 3 4 5 7 8 8 7 4 3 5 4 3 7 4 3 5 5 6 6 5 5 5 6 5 5 3 2 1 2 2 2 2 0 0 2 1 2 3 4 6 4 3 4 4 6 1 4 2 5 6 12 12 11 12 7 3 7 8 7 14 13 11 12 9 9 11 10 12 13
27 28 28 27 23 21 20 21 20 19 17 15 11 7 5 1 1 1 2 2 3 5 8 9 9 6 3 4 3 1 6 8 5 5 7 7 9 9 7 8 8 7 6 6 5 5 5 2 2 3 1 2 0 2 1 1 3 3 6 5 3 5 5 6 2 2 4 3 3 7 12 11 10 8 7 7 6 8 15 12 11 11 9 10 11 11 11 13
27 28 28 27 24 20 20 20 19 18 18 17 11 6 3 1 2 2 2 2 2 5 8 8 10 5 2 3 2 2 6 7 6 6 7 8 10 10 10 10 10 9 7 7 8 7 7 4 2 2 1 3 0 1 2 4 3 0 2 5 2 5 5 7 5 3 8 4 6 5 5 6 7 9 8 8 7 8 15 11 9 9 8 9 9 10 10 13
27 27 28 27 23 19 19 19 18 18 19 18 12 5 1 2 3 3 2 0 2 5 6 7 10 4 1 1 2 2 5 5 6 7 6 7 9 10 10 7 6 7 7 7 9 7 8 7 2 2 1 2 0 1 4 6 3 1 3 3 3 3 1 6 6 5 8 6 4 13 5 5 5 9 8 8 8 8 14 9 8 8 7 8 8 9 9 12
26 27 28 27 22 19 18 17 16 17 19 18 12 4 1 3 4 3 2 0 1 4 5 5 7 4 2 2 2 5 7 5 5 6 6 7 8 8 8 6 3 4 5 6 7 6 7 6 3 3 1 1 4 4 3 4 4 3 3 2 4 3 1 5 9 6 6 2 7 15 6 3 3 8 7 7 7 9 14 8 8 8 8 8 7 9 8 9
26 27 28 27 22 18 16 16 16 17 18 17 11 4 3 4 4 3 2 1 2 3 4 4 4 4 3 2 5 6 5 6 7 6 6 6 6 5 7 8 4 3 5 5 3 3 4 4 4 2 1 2 5 5 4 4 4 4 3 1 3 3 1 4 8 9 3 5 10 10 8 1 2 6 7 8 7 9 13 8 9 8 8 8 7 8 8 8
26 26 27 26 21 16 15 15 15 16 18 15 8 4 4 4 4 3 1 1 1 2 2 2 2 3 2 2 5 5 4 9 10 6 5 4 3 4 6 6 2 2 3 2 2 2 4 4 2 1 2 3 2 4 6 4 3 4 3 3 1 3 3 1 5 9 6 13 9 10 10 3 2 5 7 8 7 9 12 8 8 8 7 7 7 7 8 8
26 26 27 26 20 16 13 13 14 17 18 12 5 4 5 5 5 4 3 1 0 2 2 2 3 3 2 5 5 6 9 11 10 6 5 3 2 3 4 3 1 3 4 4 5 3 3 3 2 2 4 4 3 5 6 2 2 2 2 4 2 4 5 4 3 5 11 17 10 12 11 5 5 6 6 7 7 8 10 7 7 7 7 7 7 7 7 8
26 26 27 25 20 15 11 11 14 18 18 10 4 6 6 4 3 2 5 4 1 2 1 2 4 3 3 6 7 10 11 9 7 4 3 2 2 3 3 4 3 3 4 3 4 4 2 3 4 4 4 3 2 4 6 6 5 7 5 5 5 5 6 6 5 3 12 18 9 10 11 5 6 6 6 7 7 7 8 6 7 6 6 6 6 6 6 7
26 26 27 25 19 13 10 10 13 18 19 11 5 5 4 3 3 3 6 4 1 0 1 2 1 2 4 5 8 11 10 5 2 2 2 4 3 2 3 5 6 5 4 1 2 3 4 5 4 2 1 0 3 4 6 5 5 8 7 6 6 7 6 5 7 3 8 13 5 5 10 6 6 5 6 6 6 7 8 7 7 6 6 5 6 6 6 6
26 26 26 24 18 12 8 8 11 16 20 16 9 6 3 2 3 2 4 5 4 2 2 4 2 3 7 7 9 8 5 2 4 4 5 6 4 4 4 4 7 6 3 1 1 3 5 6 3 3 5 2 1 4 6 6 5 7 7 8 6 6 5 3 4 2 3 10 2 3 10 7 6 5 6 5 5 6 5 6 6 5 5 4 5 5 4 2
26 26 25 22 17 11 7 8 9 12 17 21 16 8 2 1 1 2 0 2 6 3 1 4 2 3 7 7 7 5 3 4 6 6 7 7 6 4 3 5 7 3 4 3 3 5 6 3 5 6 4 3 5 4 7 7 6 6 5 7 5 4 5 4 4 4 5 9 5 3 9 6 5 5 5 5 4 3 4 4 4 4 5 5 5 5 4 4
26 25 25 21 16 11 6 7 9 9 13 18 16 8 4 5 2 2 2 2 5 5 2 2 2 3 5 4 5 6 4 3 3 6 8 7 4 3 3 5 5 3 5 5 4 3 3 2 6 3 3 7 7 5 7 7 5 4 4 6 4 3 3 2 3 5 6 6 7 7 8 5 4 5 5 5 4 3 4 4 4 4 4 4 3 3 4 5
26 25 24 20 16 11 5 5 8 10 9 10 11 11 9 6 1 2 2 2 3 5 2 2 1 1 3 3 7 6 2 0 0 4 7 5 2 2 3 4 4 5 4 4 7 6 1 4 3 4 6 7 7 6 7 7 5 3 2 5 6 4 3 4 4 5 8 7 6 9 7 3 3 4 3 4 5 3 5 5 5 5 3 3 3 3 4 4
26 25 23 20 16 12 6 2 8 12 8 4 6 13 12 5 1 2 2 3 2 5 4 3 1 2 4 4 7 4 1 1 1 3 5 4 3 2 2 2 4 5 2 3 8 5 1 4 2 5 7 7 8 6 4 5 4 4 1 4 7 8 8 9 9 8 7 2 3 5 6 2 4 3 3 3 4 3 4 4 3 4 4 4 4 4 4 4
26 24 23 19 16 14 7 0 8 13 5 3 7 14 12 6 2 3 3 4 2 4 4 3 2 5 7 5 5 3 3 3 3 2 3 4 4 3 2 2 3 3 1 3 5 2 2 5 4 6 7 7 7 5 1 4 6 2 2 4 7 11 13 11 9 6 4 4 4 3 5 2 3 4 5 3 3 4 4 3 3 4 3 2 2 3 2 3
25 24 23 19 15 14 6 1 9 10 2 3 11 14 12 6 1 3 3 6 2 3 2 3 2 4 6 5 4 3 2 4 4 4 4 4 4 4 5 2 3 2 1 3 3 0 2 6 7 7 7 7 6 3 1 4 6 1 1 5 9 12 13 11 8 5 3 3 1 3 5 3 2 5 5 2 1 5 4 4 5 4 4 4 4 4 2 2
24 24 22 18 13 10 6 5 8 5 2 6 12 14 10 3 1 2 5 4 2 2 0 3 4 4 7 6 4 3 2 3 2 2 5 7 5 3 5 1 4 1 2 5 3 3 1 4 5 5 6 5 2 1 2 5 4 1 2 7 7 8 8 7 6 4 2 3 0 3 2 3 2 3 2 2 1 5 6 6 6 5 6 5 5 5 4 4
24 23 22 18 11 6 7 8 6 4 5 9 13 14 7 1 1 3 5 2 2 2 1 2 4 5 6 6 5 3 1 1 2 3 5 8 6 4 4 3 6 3 4 6 4 3 0 1 1 4 5 2 2 3 2 5 2 2 5 7 6 6 6 5 4 4 3 3 3 5 2 2 2 3 2 2 3 5 6 5 6 6 5 5 5 5 4 4
23 23 21 17 9 4 7 8 4 4 7 10 14 12 3 1 3 5 2 1 1 2 1 2 3 3 6 6 5 5 3 2 2 3 3 4 6 6 3 2 5 5 5 6 3 1 3 2 1 3 2 1 3 0 2 2 4 5 6 6 6 6 4 4 3 4 4 1 4 5 2 2 2 3 5 4 4 6 6 4 5 6 6 6 5 4 4 4
23 22 19 14 7 4 5 5 4 6 9 11 13 8 2 2 4 5 1 2 1 2 2 3 3 3 6 4 3 4 4 4 5 4 3 4 6 6 3 2 4 5 5 6 4 4 6 5 2 1 2 1 2 2 3 4 4 5 4 4 4 4 4 3 4 3 3 3 5 4 2 3 2 4 6 7 6 6 8 7 7 7 7 6 5 5 5 4
23 21 16 11 6 5 4 5 7 8 9 11 10 4 4 2 2 2 2 3 2 2 1 2 3 3 4 2 1 3 3 3 4 4 3 2 4 4 2 1 1 3 4 2 3 4 3 2 4 4 3 2 5 3 3 6 5 5 4 5 4 2 3 2 3 2 1 4 3 2 1 1 3 5 7 10 8 7 8 7 8 9 8 6 5 6 5 3
23 19 14 8 5 6 6 7 8 7 9 10 5 4 6 3 0 2 2 1 1 2 0 1 3 3 3 3 3 4 2 2 3 4 3 2 4 3 2 1 3 3 1 1 1 3 2 4 6 5 3 2 5 4 1 3 3 3 4 4 3 2 2 1 3 1 2 3 3 3 1 0 3 4 5 10 8 7 7 5 6 7 7 7 6 5 4 4
21 17 11 5 3 5 6 7 7 7 9 6 4 4 4 2 2 2 2 2 2 2 1 1 3 3 3 2 2 3 2 2 3 3 3 3 4 2 3 3 2 4 3 2 1 1 2 2 3 2 2 3 3 3 5 3 2 1 3 5 3 4 3 2 3 2 3 2 2 3 1 2 2 3 4 6 3 2 3 2 3 3 3 5 4 3 4 4
19 15 8 3 3 4 5 7 7 7 7 4 6 4 2 2 3 1 2 3 1 2 2 1 3 4 4 3 3 2 2 1 2 4 4 3 2 1 1 3 3 4 4 3 0 1 3 2 5 4 2 1 3 2 4 5 2 1 2 4 1 3 4 2 2 3 3 1 1 2 2 2 3 2 3 1 1 2 2 1 1 1 1 2 3 4 5 4
17 12 3 2 4 4 6 7 6 7 5 5 6 3 2 3 2 2 3 2 0 1 2 3 3 4 3 4 3 4 2 1 2 4 3 2 1 1 1 3 1 3 4 3 1 1 3 1 5 5 2 0 1 2 1 3 1 1 1 1 2 3 6 4 1 1 3 2 2 1 1 3 1 1 2 3 4 2 1 1 3 3 3 2 4 5 4 4
18 11 3 2 4 4 7 7 6 6 4 6 5 1 3 3 3 4 2 1 1 2 3 1 1 2 1 2 3 5 4 2 2 2 1 2 0 1 1 2 1 1 3 4 2 2 3 1 5 3 1 3 1 1 2 2 2 2 1 3 2 2 4 4 2 3 4 1 3 1 2 2 0 1 1 4 5 5 4 4 4 5 4 5 6 5 4 4
16 8 2 3 3 4 6 6 5 5 5 6 3 1 2 1 2 2 1 1 1 3 5 2 1 1 2 1 2 4 3 2 2 2 1 1 0 2 0 1 0 1 1 3 2 1 3 1 6 2 2 5 4 3 2 4 2 3 3 2 2 2 0 1 2 1 1 1 3 3 1 2 3 3 3 6 8 8 7 5 5 6 6 6 6 5 5 4
10 4 2 3 2 3 6 4 4 5 6 4 1 2 1 1 2 2 3 2 2 3 3 2 1 1 1 2 1 3 2 1 1 2 1 1 1 1 1 1 0 1 1 2 3 1 2 2 3 4 3 3 5 3 1 4 5 3 2 3 2 3 3 1 1 2 2 1 2 3 3 2 5 5 7 10 10 9 8 6 6 8 7 6 5 5 5 4
4 2 1 2 2 2 4 3 4 6 4 2 3 3 1 1 2 1 2 2 1 2 1 2 2 2 1 1 1 1 1 2 2 1 0 1 1 0 2 1 0 2 3 4 4 1 2 3 2 5 4 2 2 0 4 3 1 3 3 3 2 1 1 1 1 1 2 2 2 1 2 4 5 4 8 10 10 9 9 7 7 7 7 6 6 5 5 4
3 2 2 2 2 1 2 4 4 4 3 2 2 2 0 1 1 2 2 0 1 1 1 4 3 2 2 1 0 2 1 2 2 1 0 1 2 1 2 2 2 1 2 4 4 1 1 2 2 2 4 2 3 4 4 5 4 3 1 1 2 1 1 2 1 3 1 2 3 3 2 6 5 3 5 8 8 9 8 7 7 6 7 7 6 5 5 4
3 2 2 3 2 3 3 5 1 2 3 1 1 1 0 2 1 1 3 2 1 1 2 3 2 1 2 2 1 1 0 1 1 1 1 2 2 2 2 1 3 2 2 2 1 1 2 3 2 1 1 3 6 4 2 4 4 5 1 1 3 2 3 5 2 3 1 2 1 3 1 5 5 2 3 5 5 6 6 6 6 5 6 6 6 5 5 5
2 1 2 5 1 4 5 4 2 3 1 2 1 0 1 2 1 1 2 1 1 1 2 1 1 1 1 1 1 1 1 1 1 1 1 1 2 3 3 2 3 3 4 2 1 1 1 3 2 1 4 4 5 4 2 2 4 4 1 0 3 1 2 5 4 3 2 2 2 1 2 5 5 3 2 4 4 3 4 5 6 5 4 5 5 5 4 4
1 3 2 6 2 4 3 1 2 1 2 2 2 2 1 1 1 0 1 1 1 1 2 1 1 1 1 1 2 1 1 1 0 1 1 2 1 2 1 1 1 2 1 2 2 1 0 1 3 2 3 5 6 6 5 4 2 2 2 2 2 3 4 3 2 3 1 3 4 3 3 5 5 4 3 2 2 2 3 4 5 5 5 5 5 5 4 4
2 2 3 5 4 4 2 3 4 3 1 1 2 1 1 1 0 1 1 1 0 3 1 1 0 1 1 1 2 2 1 2 0 2 1 1 2 1 2 4 2 1 2 3 3 3 1 2 3 4 3 1 1 2 3 3 1 0 1 1 1 3 4 2 1 3 0 3 4 4 4 5 5 4 2 2 1 3 4 3 3 5 5 5 4 4 4 4
1 1 2 5 5 5 2 1 4 4 3 3 1 1 0 0 2 1 1 1 1 2 1 1 1 2 3 3 2 3 3 1 1 1 1 1 2 2 2 4 3 1 2 4 5 4 3 1 2 5 5 5 5 5 4 2 1 1 3 2 1 2 3 3 3 2 3 3 2 5 6 3 6 5 4 4 4 5 5 3 4 5 5 5 4 4 4 3
1 1 1 1 2 3 3 3 4 3 2 3 2 1 2 1 2 2 1 0 0 1 1 1 1 2 0 1 2 1 2 3 3 1 0 2 2 3 2 3 3 3 1 4 2 3 4 1 1 4 4 5 6 5 3 2 2 3 3 4 4 3 4 4 3 4 4 3 3 7 5 4 7 7 7 7 6 6 6 6 7 6 5 5 3 3 3 4
1 1 1 1 1 0 2 2 2 3 2 2 2 1 1 1 1 1 1 1 2 1 1 1 2 1 4 3 3 1 2 3 3 1 1 2 1 3 4 2 2 4 3 3 2 3 5 2 3 3 3 5 4 4 3 3 3 3 4 6 6 4 6 7 6 6 6 5 7 6 6 6 8 7 7 8 8 8 8 7 6 4 4 4 3 4 4 5
1 1 1 1 1 2 2 1 1 3 3 2 1 1 3 3 4 4 1 1 3 2 1 1 4 4 4 3 4 2 1 1 1 3 2 1 1 1 1 1 1 3 4 3 3 2 4 1 2 2 2 5 4 3 3 4 1 3 5 8 8 6 8 8 7 6 7 7 8 4 5 8 8 7 8 7 6 6 4 3 4 4 5 5 5 5 5 5
1 0 2 2 3 0 1 2 2 2 1 0 1 2 3 5 5 4 1 3 1 2 1 3 5 4 3 3 5 3 6 7 5 4 4 2 1 1 1 2 2 3 4 2 2 2 1 0 0 3 2 6 5 2 1 2 2 5 7 7 6 4 5 6 5 4 4 6 6 3 3 7 7 6 6 3 2 4 3 4 5 6 6 6 6 5 5 5
2 1 0 2 2 2 1 2 3 3 0 1 2 2 2 5 6 4 2 3 5 3 3 5 5 2 2 3 3 5 8 8 8 7 7 6 3 3 2 2 4 2 3 0 1 2 1 0 1 4 2 5 4 3 4 3 2 6 9 9 7 4 4 4 4 5 6 5 3 3 2 7 6 3 2 1 4 6 5 6 6 5 6 7 7 6 6 6
3 1 1 3 1 2 1 2 2 2 2 2 2 2 2 4 5 4 2 2 3 4 5 6 5 3 1 1 5 8 8 9 9 7 7 6 5 5 3 3 5 4 2 2 1 0 3 3 1 2 1 5 4 3 4 5 4 6 8 8 9 7 4 3 3 5 7 6 6 5 6 6 4 4 4 3 5 6 6 6 5 6 7 6 6 7 6 6
Wind_Direction
2 1 358 357 354 352 349 348 347 347 347 346 346 345 343 344 346 351 357 4 10 16 34 39 45 40 29 26 21 13 356 343 322 310 301 299 304 288 299 309 308 337 22 36 43 64 95 58 27 57 120 104 17 104 138 77 84 68 89 115 169 183 176 180 181 189 165 204 270 316 54 76 12 327 334 28 27 48 56 29 39 50 49 70 104 117 119 124
4 2 1 0 357 353 351 350 351 350 348 346 348 348 349 353 355 2 7 12 20 27 38 40 43 35 23 20 10 1 344 326 311 300 286 303 321 310 297 283 276 351 35 42 41 53 65 13 353 51 87 71 353 35 96 302 93 90 115 134 202 195 198 195 180 193 168 171 242 299 349 96 102 282 349 32 353 11 66 39 35 65 62 70 94 108 113 122
5 4 3 2 0 358 356 355 355 351 349 349 350 351 354 359 2 10 15 18 26 31 34 39 41 25 10 2 352 347 337 333 327 311 307 338 346 6 163 202 159 90 78 45 36 45 68 107 26 65 68 63 345 55 95 23 135 154 126 134 230 207 206 227 199 197 207 176 170 277 291 87 193 258 17 79 6 357 59 97 69 84 100 93 96 109 112 116
6 5 4 3 2 1 0 360 357 351 351 354 353 354 357 1 9 19 18 23 30 30 30 32 23 3 352 341 342 336 339 12 0 328 357 339 356 85 132 139 126 114 30 20 29 37 60 116 88 71 75 55 333 23 120 230 186 156 138 167 224 195 195 235 217 208 212 170 148 216 332 49 308 351 65 114 66 358 333 182 139 131 138 123 117 117 114 115
9 7 6 5 5 3 2 0 357 354 355 358 358 357 359 4 17 26 24 28 28 27 25 20 4 356 344 333 337 327 354 46 314 335 11 356 58 113 132 122 111 81 342 0 12 40 64 94 75 57 68 77 11 38 212 227 153 138 196 181 175 153 200 244 215 195 173 140 118 112 48 59 329 0 83 114 108 314 301 268 124 123 138 133 131 122 114 114
13 11 9 8 8 5 3 2 360 359 359 2 2 360 2 7 23 35 32 28 24 24 17 15 6 357 342 333 341 339 46 73 296 347 15 42 104 128 121 104 80 2 329 338 347 29 69 69 62 68 75 88 123 131 234 258 137 146 254 198 180 168 189 245 172 177 158 133 138 142 153 41 59 6 99 90 81 292 296 141 109 95 97 114 113 107 104 103
14 12 10 10 10 7 6 6 5 5 5 6 5 3 3 9 31 42 39 28 20 17 10 14 8 357 345 337 342 14 76 256 319 16 39 95 125 142 104 66 11 331 316 332 352 36 79 66 74 123 92 76 146 191 245 303 80 145 232 261 219 187 192 209 158 171 164 140 184 153 59 39 56 79 55 43 345 322 351 59 73 61 53 62 63 55 63 69
13 11 10 10 10 8 7 8 8 9 8 8 7 4 3 15 33 43 46 26 15 12 6 11 7 2 357 346 0 23 32 305 353 40 108 130 137 141 83 348 331 315 313 327 331 58 83 78 107 145 92 92 153 190 227 58 39 156 206 253 196 178 218 209 139 141 168 153 79 59 46 12 351 41 50 14 341 347 27 46 49 54 47 43 42 32 42 58
11 10 9 8 8 6 6 7 8 9 9 9 8 4 4 17 33 54 49 22 14 8 4 8 4 4 358 354 77 53 317 292 1 54 149 151 177 237 309 320 326 310 315 330 314 177 93 110 188 181 156 170 142 190 199 99 30 185 192 229 145 126 270 156 139 143 170 116 68 59 32 354 335 17 43 8 356 2 45 50 43 54 47 39 45 40 50 65
9 9 8 7 7 5 3 5 6 7 7 6 5 1 1 17 45 66 57 27 16 4 4 5 356 359 354 4 70 72 296 316 338 275 269 252 261 284 304 323 319 306 304 315 269 175 159 180 230 169 132 138 130 285 166 103 141 173 148 112 83 11 2 84 150 239 83 63 78 79 47 1 355 35 46 358 353 15 59 54 44 55 49 47 53 46 55 60
8 8 7 6 6 4 1 3 4 4 3 360 358 354 353 19 73 77 77 39 16 6 3 359 356 354 352 45 84 86 348 341 335 285 286 279 286 296 310 323 311 308 306 306 283 226 299 241 211 112 101 124 206 327 321 130 130 143 129 117 14 13 35 41 53 237 91 89 91 84 63 15 10 28 353 341 348 36 68 58 47 57 50 54 61 55 57 55
6 6 6 5 5 2 1 2 2 2 1 358 352 336 337 32 127 96 84 40 9 4 359 1 1 345 356 58 113 96 344 339 326 296 286 281 290 293 301 308 301 301 298 302 306 328 345 306 93 81 193 153 97 342 332 111 101 118 118 129 335 28 55 14 339 256 73 112 243 74 53 10 0 355 333 344 350 50 70 60 48 56 51 55 60 57 54 47
4 4 4 4 4 2 1 1 2 3 3 3 354 323 315 133 139 102 93 46 359 1 1 6 358 340 49 53 227 295 340 333 319 299 291 288 290 295 301 299 296 297 287 281 289 316 344 331 63 73 171 122 177 299 65 31 54 100 84 110 16 36 41 359 340 18 58 358 285 104 64 332 338 336 342 348 335 59 68 56 47 51 49 53 54 56 53 43
2 3 3 3 3 1 1 1 3 5 6 5 359 334 279 135 126 121 118 20 342 1 360 4 357 353 99 318 246 330 340 333 317 305 308 299 296 308 319 309 282 286 284 283 287 299 326 327 30 78 56 107 244 343 32 11 30 25 25 54 41 85 56 352 357 37 67 340 344 100 93 291 332 333 345 343 324 72 73 51 48 48 47 53 53 57 55 46
1 2 2 2 1 1 2 3 4 7 7 3 360 5 96 123 130 141 138 230 345 357 348 1 3 14 39 325 322 338 331 332 317 311 315 303 299 310 334 343 287 271 277 284 297 304 321 331 52 71 303 15 48 54 25 0 20 35 65 345 354 99 240 342 7 17 112 356 20 90 95 293 351 331 337 341 331 73 75 51 46 46 47 53 52 56 57 49
1 1 1 1 2 2 3 4 4 6 7 360 356 21 98 127 135 138 141 285 333 327 335 6 7 41 74 324 335 347 339 336 326 319 310 294 287 288 321 334 313 286 273 273 299 324 359 22 66 51 321 34 56 81 54 20 2 357 88 132 318 76 21 349 11 345 138 90 20 83 124 190 8 336 344 351 349 67 74 51 42 43 42 49 50 53 56 48
0 0 0 1 2 4 5 6 7 9 8 0 358 40 108 119 117 111 80 340 328 318 346 3 341 37 61 309 338 342 321 328 325 317 307 291 280 287 310 323 321 331 309 326 9 354 11 26 77 37 33 53 65 92 64 29 354 343 47 84 312 78 76 66 20 344 63 90 57 81 105 104 25 344 359 357 350 64 73 53 48 46 39 42 46 49 50 49
0 359 360 2 3 7 9 10 14 15 11 5 20 75 111 115 114 101 27 353 217 13 28 346 5 56 338 323 326 295 302 319 321 315 312 300 272 294 327 345 23 17 14 29 24 17 16 6 57 63 13 28 36 72 93 173 162 105 85 89 66 54 62 75 50 353 67 86 85 89 91 80 45 2 9 357 346 66 78 65 60 49 42 38 39 46 45 48
0 359 360 2 6 9 14 21 23 21 18 21 78 102 104 102 108 76 4 13 63 27 14 315 25 107 245 297 294 298 314 316 309 305 321 338 280 281 5 29 26 41 54 41 2 3 39 26 43 66 31 33 72 101 137 180 156 128 118 102 100 70 52 66 78 75 87 83 69 87 96 83 55 17 17 3 348 59 78 71 66 52 48 40 36 40 36 45
0 360 359 2 7 11 21 32 31 28 26 36 104 110 72 41 22 346 345 4 136 320 294 248 86 165 256 288 297 321 338 328 314 310 357 14 353 318 7 30 31 44 61 66 328 353 65 67 53 106 130 244 181 166 138 138 120 113 101 82 86 88 78 85 109 143 96 86 36 67 94 75 54 25 8 358 357 42 60 63 62 56 55 47 47 40 32 43
360 0 360 3 7 12 24 33 36 37 36 45 75 85 74 69 50 338 326 326 276 269 270 249 211 237 265 278 297 329 358 3 13 17 14 9 8 5 349 24 42 29 2 314 307 357 56 71 13 250 229 252 156 146 111 91 81 86 97 88 67 86 97 85 123 240 65 96 85 68 87 61 36 31 5 4 26 31 34 63 72 68 66 56 59 52 40 40
359 360 360 3 8 12 23 31 33 39 40 45 59 77 99 45 16 248 267 335 294 305 267 264 268 270 274 279 300 336 43 25 8 1 5 5 9 22 357 42 58 15 338 7 26 15 35 43 309 278 220 86 54 85 93 84 79 74 91 99 84 99 101 47 38 11 40 102 139 115 88 61 15 26 15 12 35 19 358 54 76 72 75 61 58 60 53 43
358 359 360 3 8 8 16 30 27 31 39 45 55 61 21 356 357 208 136 97 299 317 0 342 22 332 323 340 345 7 50 42 12 340 353 11 16 47 70 49 49 8 1 34 85 79 45 327 309 313 120 86 52 49 80 78 65 79 103 106 125 164 115 72 27 21 30 82 135 128 91 57 2 10 18 5 12 13 3 27 33 40 71 58 38 51 56 56
357 358 359 1 6 5 356 11 19 20 28 50 55 32 8 353 37 141 120 91 320 307 323 342 56 17 333 331 344 3 75 45 238 320 352 33 46 42 73 66 53 36 28 66 87 99 179 285 319 44 73 84 75 46 64 82 41 15 125 124 151 175 102 112 128 87 53 57 124 117 77 22 344 358 354 346 358 12 9 22 26 18 15 8 14 16 26 45
356 356 357 359 3 1 344 334 11 8 10 63 39 7 5 354 269 148 103 77 351 305 311 336 16 4 322 324 339 342 116 358 237 268 342 53 76 22 39 68 69 47 55 98 74 75 319 305 13 74 60 63 78 53 46 107 65 353 226 162 154 138 111 112 121 105 76 69 201 111 80 302 306 320 274 311 351 349 353 11 14 350 345 2 17 355 353 9
355 354 355 357 358 357 352 221 359 357 5 61 360 350 358 347 260 163 101 61 3 307 327 340 7 353 334 340 341 4 57 338 283 303 9 59 63 72 57 350 42 51 173 121 76 86 330 347 42 87 81 62 62 54 32 119 93 46 212 153 129 122 123 129 126 111 115 187 226 100 112 207 288 270 247 268 323 308 320 329 296 295 306 310 292 285 308 343
353 352 353 355 357 1 13 21 344 353 31 358 340 343 350 342 247 161 76 47 357 294 317 305 333 359 332 325 340 56 92 287 314 19 31 35 7 61 73 354 24 24 296 90 68 239 315 355 19 51 70 65 55 36 1 116 104 123 209 119 124 130 140 153 141 121 157 177 356 37 110 134 220 233 232 207 261 288 289 279 274 272 266 255 248 250 258 283
352 350 349 352 357 4 16 352 340 357 14 328 332 339 344 333 207 128 78 69 296 284 343 296 320 339 322 332 11 85 193 276 33 343 353 37 26 56 75 108 135 74 356 93 120 258 326 8 11 47 63 65 72 275 202 122 99 254 165 110 121 132 137 147 131 110 112 123 233 294 125 124 247 244 212 147 219 267 256 246 250 250 250 249 248 254 265 275
350 349 345 347 354 3 0 349 344 356 333 325 333 336 336 301 136 69 75 102 277 293 179 312 335 328 333 1 16 15 343 18 101 271 333 43 40 54 87 160 141 112 16 87 140 235 298 278 223 99 75 54 242 263 175 129 122 176 123 92 79 79 82 86 104 103 68 91 215 246 185 139 251 243 195 190 230 242 236 237 244 247 252 254 253 256 264 274
348 348 343 342 349 355 343 340 348 346 328 325 331 332 337 65 56 64 51 220 258 293 248 353 342 327 7 20 345 345 26 0 325 331 5 30 14 34 89 146 107 92 12 35 85 279 314 300 173 103 76 233 202 221 38 102 141 131 96 74 62 47 48 55 64 92 77 321 246 252 236 149 207 232 205 209 219 200 195 223 242 248 254 252 250 250 252 253
345 346 341 336 336 329 333 339 340 331 323 323 329 338 49 34 57 94 213 251 284 317 351 3 326 359 31 35 319 335 18 340 332 22 31 9 8 18 41 46 55 55 12 10 14 337 350 10 357 291 287 330 99 109 23 28 85 101 75 80 78 12 12 33 0 42 95 256 264 267 265 134 183 234 208 222 242 195 177 193 207 219 232 230 229 233 239 245
343 344 339 332 326 317 315 318 320 322 321 325 333 17 83 24 24 126 243 297 310 296 11 313 302 0 4 10 308 311 342 343 354 57 63 31 34 24 39 110 102 32 3 333 340 350 14 4 313 310 311 31 69 87 3 10 42 72 75 84 84 15 10 16 320 354 191 242 266 269 339 110 225 243 203 211 234 211 189 191 190 198 208 207 209 218 231 254
341 341 336 328 325 325 320 314 316 321 321 327 354 59 76 73 252 228 258 316 263 256 4 292 305 345 342 12 359 312 349 359 351 48 72 77 63 33 352 184 140 95 73 194 15 10 356 315 338 359 340 18 82 99 14 345 21 68 116 114 103 104 67 299 265 317 263 257 282 258 265 35 264 278 203 199 216 209 199 205 198 197 197 193 197 209 235 265
340 341 332 323 336 331 326 319 317 324 327 343 55 63 63 94 230 229 260 261 248 307 16 320 320 0 28 41 329 311 41 19 344 36 37 44 59 32 341 335 26 91 103 91 59 95 124 301 335 7 314 350 52 146 166 149 60 66 156 133 127 149 139 213 222 208 228 253 312 270 215 155 200 266 232 209 221 198 188 221 220 226 215 188 190 222 243 257
340 339 330 332 10 345 331 324 319 331 342 36 71 63 105 202 249 203 236 254 273 315 327 1 35 42 16 338 322 341 73 349 359 44 35 48 103 135 322 311 344 82 102 91 74 123 106 230 261 276 268 24 0 250 148 108 66 274 170 101 76 180 138 121 178 174 177 159 328 252 222 214 201 264 284 200 125 103 99 106 155 225 245 166 188 231 237 249
340 343 351 36 30 6 342 335 327 335 359 76 69 53 167 205 210 171 212 237 115 256 309 347 40 61 357 319 333 348 356 333 25 49 26 29 134 176 274 263 277 100 126 124 165 179 79 267 283 324 334 58 323 274 104 102 168 271 106 142 238 159 116 110 166 39 78 120 266 250 255 306 330 313 347 98 143 175 124 155 194 225 238 199 210 229 242 258
342 352 25 34 33 20 350 345 338 341 25 85 84 132 212 211 173 174 209 207 116 98 89 44 1 68 357 320 317 323 344 355 17 56 43 3 322 241 314 277 258 133 173 147 157 194 124 262 294 349 1 282 263 114 25 43 133 109 160 211 199 99 92 107 116 13 40 158 275 293 205 263 307 250 306 122 171 222 222 205 231 248 236 224 229 240 254 259
339 349 29 31 33 16 356 351 344 3 57 76 72 191 210 196 173 183 180 130 100 67 80 128 196 128 182 167 296 304 348 13 356 39 105 34 274 182 186 278 333 52 194 132 91 92 109 15 296 283 230 296 338 73 356 334 26 113 165 186 115 106 68 56 115 89 67 215 289 310 263 224 202 216 216 180 193 220 221 207 228 238 223 221 239 257 267 269
339 358 33 7 9 14 3 343 345 36 71 76 97 208 213 213 244 222 169 140 97 80 81 196 179 77 167 158 219 281 347 66 31 37 122 135 92 170 168 215 197 18 6 98 117 152 85 94 284 280 259 313 2 56 163 310 345 28 60 21 31 132 155 162 145 158 156 173 263 307 327 260 230 213 190 193 203 209 207 202 215 226 221 217 227 242 256 261
3 54 339 326 11 22 357 346 18 52 75 121 180 210 248 234 282 294 171 174 146 115 149 202 158 87 196 227 228 258 355 108 140 77 153 150 105 290 286 234 188 340 11 58 93 99 54 95 224 291 329 14 6 124 167 180 333 9 22 8 4 48 131 167 79 76 130 147 178 233 303 268 249 211 184 195 204 202 202 206 216 225 223 221 223 226 239 245
43 44 283 328 14 291 356 30 43 62 91 124 163 216 291 147 280 336 346 320 176 182 157 160 160 142 162 169 271 239 338 67 113 106 222 206 132 146 267 215 180 279 22 50 49 74 105 116 170 297 355 33 240 237 174 167 168 151 148 174 157 150 126 133 331 320 103 129 164 166 255 270 260 216 197 200 199 202 205 203 214 226 220 222 227 225 231 239
68 65 264 336 301 236 53 50 13 63 102 145 172 189 20 70 100 341 344 10 83 82 68 116 151 156 159 168 203 207 136 66 92 116 173 221 178 177 260 202 149 112 95 90 343 214 148 103 100 251 266 228 248 260 157 164 157 135 129 146 136 124 108 125 205 264 116 81 137 131 213 268 270 259 229 220 208 207 204 200 216 234 223 217 229 241 248 246
81 201 280 359 312 183 84 50 312 20 58 239 251 87 7 52 111 312 337 3 25 33 32 41 173 175 193 188 148 174 169 149 173 170 160 225 232 241 261 211 161 92 79 116 252 255 122 86 81 294 301 301 298 318 48 82 100 106 33 12 127 96 101 140 174 180 142 159 149 106 280 265 281 303 264 243 229 198 192 200 210 225 228 222 232 253 262 253
12 247 273 1 31 158 102 110 182 1 283 288 24 14 338 86 135 16 335 319 355 98 79 355 223 204 238 125 116 166 201 155 221 293 150 146 222 250 273 275 171 106 92 183 188 174 192 102 99 69 357 346 340 346 352 349 41 134 276 296 132 99 96 123 135 88 106 213 154 141 250 252 274 314 328 306 274 227 234 230 210 202 211 223 236 257 259 250
347 222 260 343 31 91 115 169 151 153 202 63 53 332 345 21 63 147 200 252 153 138 131 316 197 121 14 36 56 20 42 130 222 316 355 165 275 273 8 8 34 132 221 202 149 112 117 141 119 118 134 182 254 277 269 274 270 211 301 318 125 111 116 155 92 77 208 233 151 158 226 261 286 306 322 315 249 239 256 251 225 219 217 221 235 258 253 231
30 143 280 331 18 56 79 153 104 120 155 121 93 280 141 172 302 295 179 202 104 122 106 330 50 66 32 35 42 356 345 25 47 19 45 264 284 284 343 16 24 235 199 133 110 86 91 125 135 137 160 181 194 220 226 191 163 269 295 299 229 147 121 109 97 134 193 184 189 214 209 254 286 267 253 264 237 228 234 206 206 229 234 229 237 257 248 228
55 125 163 340 350 21 36 20 52 89 152 147 142 224 195 185 309 331 331 267 46 82 72 28 62 89 203 68 78 329 325 356 13 48 120 251 269 295 328 51 32 325 24 102 90 80 96 130 184 150 185 206 197 217 230 139 184 225 242 271 258 190 136 129 167 206 167 127 270 254 194 201 261 246 231 242 235 225 231 217 208 216 223 222 231 241 225 238
50 153 165 151 251 324 72 359 26 83 113 150 144 201 192 159 223 223 242 344 15 44 87 357 347 223 205 179 138 179 340 5 354 336 299 292 318 341 344 34 21 349 28 46 354 87 112 191 203 164 251 258 226 232 219 180 225 227 208 247 259 205 172 190 212 201 162 174 250 243 177 198 244 243 228 227 214 206 214 213 203 199 199 194 188 187 201 236
44 79 289 7 118 180 181 304 26 113 140 161 143 186 171 178 216 225 210 41 353 338 105 215 280 259 219 173 130 136 205 149 301 278 245 303 353 18 3 293 311 31 60 50 353 73 117 208 211 144 316 295 287 276 211 181 243 281 244 243 244 218 202 212 224 200 182 219 248 213 189 235 246 229 228 230 207 195 193 171 162 177 187 181 174 184 206 235
41 3 305 27 47 36 207 21 63 123 170 231 234 238 179 178 212 235 182 139 203 306 108 196 246 238 197 169 138 182 215 178 172 223 186 144 307 240 168 214 214 36 45 67 10 22 83 281 244 84 17 301 302 330 209 180 205 251 265 260 243 230 227 230 232 195 193 247 257 177 195 265 257 216 229 254 154 141 145 165 182 192 187 172 173 192 212 229
327 253 177 90 51 342 348 28 79 114 10 271 218 234 200 201 207 192 175 183 185 199 197 201 216 181 128 148 173 230 232 184 176 199 177 160 197 201 196 208 175 95 23 112 106 27 76 25 12 70 35 287 302 6 332 313 257 250 268 265 236 208 202 215 210 187 187 203 189 139 202 263 257 199 208 229 150 155 180 191 192 199 187 170 175 196 211 222
349 292 60 100 89 316 31 59 63 108 211 234 217 224 236 240 219 166 151 257 209 199 203 186 170 144 111 237 233 233 219 191 194 204 186 180 198 200 210 198 165 147 139 159 153 71 126 128 142 105 134 271 294 353 337 343 339 278 261 239 220 206 205 236 245 220 200 161 143 177 223 243 226 161 166 193 188 191 202 196 185 193 191 180 184 194 204 219